Wind_Speed
25 23 20 20 21 21 20 19 16 15 13 13 11 13 11 7 4 2 4 10 8 6 16 10 9 10 14 12 4 16 10 9 4 1 3 3 4 5 5 6 6 5 5 4 3 3 7 13 9 4 5 22 24 22
25 23 20 19 20 21 19 20 15 12 11 13 10 12 11 6 3 2 2 7 9 6 13 14 11 10 10 8 9 9 9 14 11 4 6 4 4 4 4 7 6 6 5 5 8 6 8 29 3 14 21 25 21 21
23 22 19 18 20 20 20 20 17 12 12 10 9 11 10 6 3 4 4 9 13 8 16 11 4 7 5 2 5 4 7 10 11 13 6 2 4 3 3 4 6 6 10 2 2 8 3 15 12 22 24 23 19 19
22 21 18 19 19 19 18 17 14 12 11 9 8 8 10 6 3 0 3 6 8 6 5 10 6 1 3 1 4 6 12 14 12 12 8 2 3 7 5 6 4 3 7 8 4 15 13 16 14 17 20 18 17 17
22 20 19 19 18 18 18 14 14 12 11 9 7 8 8 4 3 3 3 4 4 4 6 13 12 6 7 5 5 7 9 9 11 7 3 4 5 5 7 4 5 9 4 3 2 13 7 16 18 5 14 15 12 11
21 20 19 18 17 17 15 15 11 9 10 8 6 8 5 2 4 7 2 1 2 6 4 4 8 4 5 5 8 8 11 11 12 11 6 8 16 13 4 5 7 21 20 14 8 20 21 19 15 15 10 11 5 5
22 19 18 16 16 15 13 12 10 8 6 4 5 5 3 1 2 0 1 2 4 4 3 5 6 2 3 5 6 8 9 11 13 15 15 16 17 16 4 11 20 24 25 26 23 23 23 16 15 14 15 13 9 2
21 19 17 15 14 13 12 10 8 6 5 7 8 5 2 1 1 1 4 4 5 3 2 2 4 1 5 6 6 10 9 10 10 13 13 9 12 13 7 16 19 28 24 26 26 23 23 23 20 19 17 14 15 14
21 19 16 14 13 13 11 7 6 4 6 6 5 4 3 3 1 1 1 2 4 1 4 3 3 2 8 4 6 6 7 3 9 3 4 6 4 6 6 17 21 26 30 26 18 15 12 11 10 11 13 14 17 21
17 19 19 16 13 10 6 5 5 6 5 4 3 4 2 2 1 2 2 2 1 1 1 4 6 2 8 7 4 4 3 3 3 3 12 3 8 30 32 32 29 19 29 20 15 9 13 15 14 13 12 15 19 20
19 20 16 16 11 7 5 6 7 4 4 5 3 3 3 2 0 1 2 1 2 2 5 5 6 2 5 3 2 3 2 1 2 3 2 3 3 7 26 35 43 42 23 15 8 11 16 16 18 19 20 22 25 27
18 15 18 16 11 7 6 6 6 1 2 4 3 1 2 2 2 3 3 4 4 2 6 3 1 3 2 2 1 1 2 2 4 3 3 3 4 18 24 10 13 28 33 23 13 12 13 16 20 24 28 29 29 32
16 11 14 16 14 9 6 7 5 3 2 2 2 1 1 2 2 3 2 1 2 4 2 5 2 2 2 1 0 1 3 4 7 2 3 3 18 26 26 27 20 11 6 13 16 18 21 24 28 31 33 38 38 37
15 11 12 12 14 12 9 7 6 5 4 2 2 4 3 2 3 2 1 2 2 6 9 10 1 4 3 2 1 3 3 4 3 3 5 3 16 22 29 35 35 34 31 27 30 32 35 34 36 39 40 42 42 43
16 9 9 15 14 12 9 8 6 5 3 2 3 2 2 6 6 7 8 6 9 8 11 10 5 6 3 2 3 2 3 4 4 3 3 18 24 26 30 28 28 31 37 37 38 38 39 38 38 41 40 40 41 42
13 8 11 17 18 15 10 8 7 3 1 2 3 4 11 7 7 11 11 10 11 10 10 6 4 3 4 3 4 5 3 5 2 4 20 30 37 41 40 40 40 38 37 39 42 43 44 44 43 44 41 41 46 47
8 5 13 17 18 12 11 5 2 1 1 2 3 6 9 8 7 8 8 8 8 3 1 1 2 3 4 3 3 4 3 4 17 25 29 31 37 41 42 41 43 44 43 41 42 42 44 44 43 42 43 42 42 42
9 14 17 15 12 7 4 3 2 1 2 3 4 9 10 12 12 11 8 7 3 2 2 1 4 3 4 4 2 2 21 29 32 35 39 42 41 42 43 41 37 40 42 44 36 35 37 40 41 44 42 43 41 44
13 10 12 14 8 1 1 2 1 2 3 6 8 10 10 12 10 7 8 6 5 6 3 3 3 3 3 8 13 23 28 29 33 40 45 44 42 42 42 37 41 40 32 29 29 30 33 38 39 38 36 37 37 36
7 8 15 11 7 2 2 2 2 2 3 4 7 8 10 9 10 6 3 3 6 3 3 3 5 9 15 26 29 33 37 36 35 35 37 42 43 38 38 30 30 32 29 29 28 33 30 27 25 27 28 27 28 33
8 14 13 11 5 3 1 2 2 3 4 5 8 10 6 8 6 3 1 6 5 4 5 13 22 26 29 29 28 27 30 29 34 34 37 36 30 29 31 28 34 34 30 32 30 33 29 25 23 22 25 29 28 37
9 8 7 6 3 4 3 3 3 3 3 7 7 6 4 4 5 4 3 4 4 6 8 19 26 26 25 20 21 23 26 28 33 33 25 27 25 30 29 27 31 34 36 31 33 33 30 25 14 18 24 23 21 31
9 5 3 2 2 3 2 2 2 3 2 5 8 4 4 5 8 9 3 3 6 16 19 20 23 22 22 21 21 20 22 20 20 27 28 29 27 26 25 26 27 33 38 40 40 36 30 19 3 7 5 5 26 27
7 3 2 2 4 2 2 1 1 2 4 4 2 2 4 6 9 5 3 4 14 19 21 22 25 26 18 21 23 19 16 20 18 26 37 38 34 33 27 23 26 31 36 40 42 41 33 28 9 7 12 12 15 18
3 2 2 4 2 5 3 3 6 3 1 2 3 3 5 7 4 3 3 9 22 22 21 19 19 14 20 29 29 29 22 21 21 22 34 35 41 44 38 23 25 32 39 43 45 46 42 35 33 30 25 18 13 11
2 2 5 10 7 4 5 6 5 1 1 1 2 4 2 3 3 3 4 19 19 20 19 19 18 21 27 28 27 30 35 30 20 19 30 40 38 36 35 38 32 33 35 39 46 46 42 45 43 40 41 41 37 34
4 5 6 8 4 7 2 7 10 11 6 6 5 5 1 3 4 9 16 14 18 15 18 21 18 18 20 26 26 28 33 32 32 23 25 24 30 38 39 37 40 37 36 35 35 40 43 44 45 45 46 49 48 47
4 6 7 9 4 3 7 5 5 5 5 7 3 4 4 4 3 17 17 21 14 11 11 17 19 18 23 21 20 30 23 23 27 28 36 35 28 22 29 36 37 39 37 38 40 38 36 45 48 46 45 46 47 47
3 10 8 8 5 6 9 8 7 5 4 6 6 4 3 7 15 21 27 24 25 27 14 18 18 17 20 18 17 24 28 27 27 28 32 32 38 37 33 24 23 30 34 39 39 38 38 37 32 40 48 51 48 45
6 8 5 6 3 4 3 8 11 10 12 11 8 12 14 13 19 24 21 23 30 23 17 27 20 28 28 26 21 23 22 26 26 27 26 25 27 28 29 36 32 23 26 27 27 28 33 39 39 36 34 32 31 33
7 6 4 4 4 4 8 10 9 8 6 9 12 12 9 12 22 27 22 21 30 26 24 28 20 33 25 27 25 19 21 22 22 26 25 27 28 25 21 28 22 26 25 28 30 34 31 29 30 35 33 31 30 31
3 2 3 2 2 4 7 18 19 17 16 12 10 12 16 16 17 22 26 26 31 25 19 19 22 26 25 24 23 14 16 23 22 22 23 24 25 28 27 27 28 18 24 30 35 36 35 30 31 39 34 36 41 41
5 6 4 3 3 3 3 7 5 0 6 6 16 18 15 16 10 22 23 25 31 24 24 21 22 23 28 33 29 23 23 25 26 22 17 18 21 26 26 25 23 19 26 28 28 29 34 35 32 30 33 35 35 35
Wind_Direction
328 326 326 332 335 333 328 328 321 321 316 324 322 328 330 332 316 234 76 17 350 305 298 338 359 350 343 352 353 342 338 3 346 289 212 242 248 237 278 270 238 217 188 227 256 291 255 282 10 64 155 77 76 61
329 327 326 328 331 334 329 331 323 319 325 318 313 326 328 330 300 269 334 321 298 277 263 296 294 278 277 293 328 333 310 326 351 358 18 340 339 325 284 274 289 260 214 212 191 217 277 292 282 105 108 89 76 70
331 326 328 329 329 331 331 329 324 312 321 322 312 321 333 330 315 250 287 354 344 311 308 268 327 222 184 277 282 285 308 21 348 353 314 284 285 333 299 287 305 299 360 292 28 248 80 38 80 112 113 100 95 88
335 332 329 328 330 330 330 329 325 312 316 317 308 325 333 331 335 189 136 20 343 312 275 89 77 73 319 323 265 276 282 297 303 314 307 293 317 335 327 306 325 312 357 320 273 23 355 74 91 102 102 105 99 87
338 335 331 329 329 327 328 326 321 312 319 310 311 319 331 334 349 10 81 32 9 10 325 309 331 313 281 289 275 306 283 289 287 286 255 264 279 312 308 288 278 327 13 33 304 346 341 340 8 41 111 99 95 88
332 328 330 331 329 328 331 330 334 317 318 309 301 320 330 344 55 65 98 151 128 19 328 308 321 274 311 296 301 293 284 278 277 275 271 253 269 281 270 283 302 306 314 330 354 344 337 328 335 7 91 117 101 79
343 339 336 334 333 332 330 336 336 334 345 345 327 332 327 315 174 124 57 108 152 5 290 303 295 91 331 305 297 292 282 265 244 253 242 262 270 282 266 272 282 282 291 298 316 327 329 347 342 331 334 334 348 290
344 341 340 339 337 335 333 335 341 340 360 335 319 310 317 340 47 148 246 250 286 312 278 292 284 211 358 353 8 5 337 309 285 265 263 259 261 251 251 244 260 275 284 287 292 297 288 296 317 328 327 325 327 327
350 352 349 344 338 332 331 334 335 341 342 337 358 16 57 82 262 260 260 237 190 39 341 302 277 360 358 32 7 355 350 291 349 300 287 277 228 233 266 240 245 255 265 270 282 289 304 322 337 333 327 325 322 310
358 353 347 341 339 347 1 1 357 332 337 358 31 30 36 353 17 128 77 100 11 316 237 258 289 317 352 16 43 336 13 329 317 313 329 255 257 254 258 262 271 262 249 268 257 281 303 313 323 326 325 313 309 306
356 358 4 357 6 22 32 17 12 42 55 33 3 36 28 58 353 229 114 224 166 241 218 237 276 289 2 345 29 32 343 243 273 283 284 269 259 269 269 244 249 249 254 244 248 273 287 294 305 312 310 304 298 288
1 10 12 18 19 21 20 7 355 326 41 14 357 343 327 294 283 257 203 191 219 224 170 204 351 79 91 69 53 6 302 327 259 275 244 258 247 296 6 325 272 241 244 254 273 245 263 283 295 295 291 290 289 280
4 12 14 19 20 14 6 0 39 44 345 37 337 331 344 312 356 254 296 67 333 26 95 168 157 115 96 98 216 320 252 244 291 228 246 243 5 2 3 355 4 22 315 251 255 259 272 279 278 277 277 276 275 273
356 353 2 8 15 17 21 25 16 10 27 10 3 332 244 212 251 303 344 28 63 24 353 325 174 177 153 158 241 251 250 313 260 244 230 20 350 344 339 334 327 317 310 297 284 284 278 276 275 275 271 268 266 260
349 348 5 6 356 345 345 350 345 351 348 334 305 246 249 344 286 338 358 43 40 16 354 330 271 199 162 207 198 268 244 242 249 253 11 331 328 322 320 313 303 298 292 287 287 283 278 271 266 265 263 261 256 254
346 1 349 353 350 348 337 334 338 344 353 336 277 297 356 325 6 0 1 352 4 347 332 274 307 268 175 213 187 221 238 236 265 330 315 316 314 311 312 308 304 297 290 286 285 279 274 273 269 267 267 257 253 253
337 322 322 328 328 324 335 346 7 26 333 268 260 290 301 296 282 297 318 307 321 349 275 326 275 266 300 229 222 199 237 330 313 308 305 298 297 301 305 305 305 302 298 293 287 282 277 276 273 264 258 254 251 252
344 315 320 329 328 330 350 32 40 344 275 272 277 278 294 290 287 290 290 298 274 226 310 325 307 249 263 259 237 320 313 302 303 303 303 305 306 304 301 305 306 310 303 294 291 290 283 272 266 259 258 253 249 246
344 349 340 342 348 15 70 23 24 313 279 292 286 302 303 306 316 308 283 264 249 227 284 287 259 246 249 276 291 293 295 297 298 300 303 306 306 307 314 310 308 302 310 308 297 291 292 279 275 254 258 247 239 236
348 348 3 4 7 46 26 347 302 277 272 296 294 311 314 299 314 316 323 229 209 201 228 235 236 245 253 281 290 291 299 306 300 293 295 305 313 317 321 317 324 319 317 318 313 312 302 297 281 259 245 235 232 232
3 351 355 2 5 3 279 251 260 255 298 292 316 327 311 316 318 305 243 198 184 227 239 245 262 300 308 311 315 309 307 311 303 299 301 311 328 333 329 334 336 333 331 323 320 321 324 308 297 239 235 237 251 234
344 334 338 350 327 316 300 290 280 297 278 301 323 309 302 331 353 12 297 204 252 261 263 295 314 322 325 323 327 324 321 324 332 334 330 335 334 339 345 340 345 343 341 341 345 345 341 337 289 233 239 249 239 218
353 12 349 320 288 264 329 300 349 328 288 308 324 336 358 5 4 349 287 276 276 325 336 346 348 355 353 350 345 356 6 7 20 8 358 352 349 352 349 349 2 3 1 4 3 7 9 15 24 192 232 202 182 194
354 343 296 281 233 251 297 273 148 322 325 327 8 29 340 334 330 359 303 282 323 342 350 1 7 8 33 21 9 16 11 14 15 16 24 16 9 7 6 19 23 23 22 17 10 19 28 40 67 185 198 183 189 201
310 290 304 307 325 1 22 114 130 129 85 30 22 21 355 345 347 335 297 320 338 359 9 19 31 10 357 4 19 21 23 14 18 28 36 32 27 26 34 37 32 33 31 29 22 25 29 44 64 88 104 111 133 149
322 64 16 3 12 2 331 25 19 6 273 97 94 102 72 23 343 326 306 346 357 14 18 20 20 11 12 19 28 23 27 30 26 30 29 37 39 32 29 29 31 32 36 39 37 34 33 43 45 57 69 69 78 94
6 10 349 349 328 327 304 24 30 29 27 11 2 3 112 54 356 339 346 353 356 7 28 30 24 17 10 20 42 35 40 42 47 35 17 12 31 51 50 45 42 40 42 43 53 51 42 53 51 53 65 72 67 77
338 340 353 359 8 10 11 33 26 25 11 13 29 27 30 28 355 360 359 6 4 353 36 57 48 40 37 37 35 27 33 39 41 32 28 28 24 24 44 54 54 52 51 51 48 48 49 53 57 63 65 66 68 79
313 353 349 6 17 42 24 10 24 46 84 20 21 36 55 51 30 18 15 11 8 23 17 12 18 28 32 29 35 31 32 30 26 22 28 21 16 16 18 6 22 39 50 55 59 62 63 59 57 60 62 67 71 73
347 346 2 40 102 79 106 70 56 91 73 76 46 23 38 36 41 25 20 20 18 7 351 7 17 21 25 18 28 34 31 24 21 24 17 14 12 16 19 23 24 27 41 48 50 51 54 59 64 70 72 71 69 69
308 345 13 33 45 94 97 111 63 67 73 76 50 34 31 37 40 27 27 25 29 49 44 17 16 23 11 9 25 18 13 21 8 12 20 24 29 35 24 21 47 37 52 50 47 47 47 51 54 61 62 62 65 69
316 353 323 130 184 172 125 76 66 58 42 51 71 45 45 44 43 29 26 32 28 25 24 19 26 44 26 8 5 359 12 12 8 7 13 15 22 23 28 35 36 26 53 62 59 56 52 57 56 56 66 64 62 69
264 268 248 176 191 335 111 105 90 212 294 7 53 32 31 41 25 29 38 22 26 28 42 49 44 46 43 35 36 57 45 37 34 27 27 21 23 25 30 38 52 59 52 60 64 63 62 59 58 55 56 60 63 65
Height
1522 1518 1515 1512 1509 1505 1502 1499 1496 1494 1492 1490 1489 1487 1486 1485 1484 1484 1486 1486 1485 1482 1474 1474 1473 1473 1471 1471 1473 1470 1464 1461 1458 1464 1463 1461 1456 1450 1447 1443 1445 1452 1456 1459 1459 1462 1469 1420 1425 1438 1436 1434 1433 1433
1519 1515 1512 1509 1506 1503 1499 1497 1494 1492 1490 1489 1488 1486 1485 1484 1484 1483 1483 1483 1482 1482 1475 1473 1472 1473 1474 1475 1476 1474 1474 1471 1468 1468 1465 1461 1458 1449 1450 1456 1434 1450 1442 1449 1444 1449 1428 1420 1427 1429 1429 1433 1438 1437
1516 1512 1509 1506 1503 1500 1497 1494 1492 1490 1488 1487 1487 1485 1484 1483 1483 1483 1483 1483 1481 1478 1472 1470 1470 1469 1473 1474 1475 1477 1474 1473 1474 1475 1471 1466 1464 1452 1457 1451 1441 1432 1431 1433 1433 1425 1425 1425 1424 1426 1428 1433 1438 1441
1513 1509 1506 1504 1501 1498 1495 1492 1490 1488 1487 1485 1485 1484 1483 1482 1482 1482 1482 1483 1484 1482 1477 1469 1469 1471 1472 1472 1473 1474 1473 1473 1474 1475 1472 1470 1468 1456 1456 1453 1450 1440 1436 1439 1430 1430 1425 1428 1431 1430 1431 1434 1439 1441
1510 1507 1504 1501 1498 1495 1492 1490 1488 1486 1485 1484 1484 1483 1482 1482 1482 1482 1482 1484 1485 1487 1483 1474 1471 1469 1471 1471 1471 1472 1472 1472 1473 1473 1471 1471 1465 1463 1455 1450 1448 1443 1443 1449 1450 1444 1443 1441 1436 1436 1435 1437 1440 1442
1509 1505 1501 1498 1495 1493 1490 1488 1486 1484 1483 1483 1483 1482 1482 1482 1482 1481 1484 1485 1485 1485 1484 1478 1473 1470 1471 1471 1471 1471 1471 1471 1471 1470 1468 1464 1465 1467 1464 1454 1443 1443 1442 1443 1444 1443 1442 1440 1437 1436 1438 1438 1441 1442
1506 1502 1499 1496 1493 1491 1488 1487 1485 1483 1483 1482 1482 1482 1482 1482 1483 1484 1485 1486 1485 1486 1486 1482 1473 1470 1470 1470 1470 1469 1468 1468 1469 1468 1465 1465 1463 1462 1458 1454 1442 1442 1442 1440 1441 1442 1440 1440 1438 1436 1437 1437 1440 1441
1504 1501 1497 1494 1491 1489 1487 1486 1484 1483 1482 1482 1481 1481 1482 1482 1483 1484 1484 1485 1486 1486 1485 1483 1477 1471 1471 1470 1469 1468 1468 1466 1464 1462 1461 1459 1459 1458 1452 1437 1440 1438 1439 1439 1438 1440 1441 1439 1438 1436 1437 1437 1437 1440
1503 1499 1496 1493 1490 1488 1486 1485 1484 1484 1483 1482 1482 1481 1482 1483 1484 1484 1484 1484 1485 1489 1486 1484 1477 1475 1473 1473 1472 1472 1471 1467 1463 1460 1457 1456 1453 1449 1435 1437 1437 1436 1433 1435 1438 1436 1436 1436 1437 1437 1437 1437 1438 1438
1503 1499 1495 1491 1489 1487 1485 1485 1484 1484 1483 1483 1483 1483 1483 1483 1484 1485 1485 1486 1486 1486 1487 1485 1479 1477 1478 1476 1477 1478 1476 1475 1471 1463 1459 1454 1445 1438 1434 1433 1431 1431 1432 1432 1432 1433 1434 1433 1434 1435 1437 1438 1438 1438
1503 1499 1495 1492 1489 1487 1487 1486 1485 1484 1484 1484 1484 1484 1486 1485 1485 1485 1485 1486 1487 1486 1484 1481 1479 1477 1479 1479 1479 1480 1478 1476 1473 1466 1461 1450 1438 1430 1424 1423 1424 1426 1428 1429 1428 1429 1430 1430 1430 1431 1433 1436 1438 1436
1503 1500 1497 1493 1491 1489 1488 1488 1487 1486 1486 1487 1487 1486 1486 1486 1485 1485 1482 1482 1481 1475 1478 1478 1478 1478 1480 1480 1481 1481 1479 1477 1471 1462 1460 1448 1433 1428 1421 1419 1415 1420 1424 1427 1428 1429 1429 1428 1427 1427 1427 1429 1432 1433
1504 1501 1499 1496 1493 1491 1490 1488 1487 1487 1487 1487 1487 1487 1487 1488 1487 1479 1475 1473 1473 1475 1476 1477 1478 1479 1480 1482 1482 1482 1478 1472 1464 1463 1453 1438 1434 1430 1427 1423 1422 1422 1424 1426 1427 1427 1426 1425 1425 1424 1422 1422 1423 1423
1505 1502 1500 1498 1496 1494 1492 1490 1489 1488 1488 1488 1488 1490 1486 1482 1479 1477 1476 1476 1478 1478 1477 1477 1476 1478 1480 1482 1481 1479 1473 1470 1462 1453 1442 1437 1435 1431 1428 1425 1423 1421 1422 1423 1421 1418 1417 1417 1415 1414 1413 1413 1411 1409
1504 1501 1500 1498 1496 1495 1493 1491 1490 1489 1489 1489 1489 1487 1481 1481 1479 1479 1478 1479 1480 1480 1479 1477 1475 1475 1477 1478 1479 1477 1472 1465 1454 1439 1437 1434 1431 1429 1425 1423 1421 1418 1414 1410 1407 1404 1401 1400 1399 1397 1398 1398 1396 1396
1503 1501 1500 1498 1496 1494 1492 1491 1490 1489 1489 1490 1489 1485 1483 1480 1481 1482 1483 1483 1482 1482 1479 1478 1474 1470 1471 1472 1473 1468 1464 1453 1441 1441 1437 1431 1426 1422 1418 1414 1410 1406 1401 1396 1392 1388 1386 1384 1381 1379 1379 1379 1379 1381
1502 1500 1498 1497 1495 1492 1491 1490 1490 1490 1490 1491 1489 1487 1486 1486 1485 1484 1484 1483 1483 1482 1480 1480 1478 1472 1468 1462 1459 1457 1450 1446 1441 1436 1432 1426 1419 1412 1406 1400 1396 1390 1385 1381 1376 1373 1369 1366 1365 1363 1360 1361 1362 1362
1501 1499 1497 1495 1493 1491 1490 1490 1491 1491 1490 1489 1488 1485 1483 1484 1483 1482 1481 1481 1481 1481 1481 1480 1479 1474 1465 1455 1449 1448 1446 1441 1437 1430 1422 1413 1407 1399 1394 1388 1382 1374 1368 1361 1359 1355 1351 1348 1346 1342 1343 1344 1346 1346
1501 1499 1497 1494 1492 1491 1491 1492 1492 1491 1489 1488 1485 1484 1482 1481 1480 1478 1478 1479 1480 1480 1480 1479 1476 1470 1464 1455 1451 1446 1441 1436 1429 1420 1411 1402 1398 1391 1384 1377 1369 1363 1357 1351 1346 1342 1337 1331 1327 1325 1326 1328 1328 1332
1500 1499 1497 1495 1493 1492 1493 1493 1493 1492 1489 1488 1485 1483 1480 1479 1478 1477 1477 1477 1478 1479 1478 1476 1469 1460 1457 1452 1448 1442 1434 1428 1422 1413 1404 1398 1391 1383 1375 1369 1362 1354 1347 1340 1335 1328 1321 1315 1310 1310 1312 1314 1317 1319
1500 1498 1497 1496 1493 1492 1492 1491 1491 1491 1489 1487 1485 1483 1481 1478 1477 1476 1476 1477 1477 1475 1470 1464 1458 1453 1449 1444 1440 1435 1429 1424 1416 1409 1401 1394 1385 1378 1370 1364 1356 1347 1339 1331 1324 1317 1309 1302 1296 1298 1301 1305 1306 1311
1500 1499 1497 1496 1496 1494 1493 1492 1492 1491 1490 1487 1485 1482 1481 1480 1479 1478 1477 1476 1474 1469 1465 1458 1452 1448 1445 1440 1436 1432 1425 1419 1413 1407 1400 1392 1384 1375 1368 1360 1351 1342 1332 1325 1318 1309 1299 1291 1285 1286 1290 1293 1295 1301
1500 1498 1498 1498 1497 1494 1496 1491 1491 1490 1489 1486 1485 1483 1482 1481 1480 1479 1477 1475 1471 1467 1462 1458 1453 1447 1443 1438 1432 1428 1425 1419 1414 1408 1399 1390 1382 1375 1367 1358 1351 1342 1333 1323 1315 1306 1296 1288 1282 1285 1287 1286 1291 1298
1501 1499 1499 1498 1495 1493 1493 1492 1492 1491 1489 1488 1487 1487 1486 1484 1482 1480 1477 1473 1469 1464 1460 1456 1452 1446 1441 1436 1432 1428 1423 1420 1417 1411 1402 1393 1384 1375 1365 1360 1354 1348 1339 1330 1318 1309 1299 1291 1285 1284 1287 1290 1294 1297
1505 1502 1500 1495 1493 1492 1489 1488 1490 1490 1489 1489 1489 1490 1489 1488 1486 1484 1481 1476 1469 1464 1460 1456 1453 1448 1445 1439 1434 1429 1425 1422 1419 1414 1406 1400 1392 1379 1370 1362 1357 1350 1344 1337 1326 1318 1309 1299 1292 1288 1288 1291 1293 1294
1505 1500 1499 1498 1497 1495 1492 1488 1487 1487 1486 1485 1487 1490 1491 1491 1490 1487 1482 1477 1471 1467 1464 1460 1456 1451 1446 1443 1442 1436 1430 1423 1420 1417 1412 1406 1398 1391 1382 1372 1364 1358 1351 1345 1340 1326 1322 1315 1306 1301 1298 1297 1296 1296
1505 1504 1502 1500 1499 1497 1493 1492 1491 1490 1490 1489 1486 1487 1487 1492 1491 1487 1481 1477 1475 1471 1467 1464 1460 1456 1452 1447 1445 1441 1436 1431 1426 1422 1419 1413 1408 1400 1392 1385 1378 1373 1366 1359 1351 1341 1337 1331 1322 1317 1315 1313 1312 1310
1506 1504 1503 1502 1500 1499 1496 1495 1495 1496 1496 1495 1493 1494 1494 1494 1494 1488 1484 1480 1475 1473 1469 1466 1463 1459 1456 1452 1449 1445 1440 1436 1431 1426 1422 1416 1411 1407 1403 1396 1391 1386 1379 1375 1369 1362 1355 1351 1344 1339 1337 1331 1329 1329
1507 1506 1503 1502 1500 1501 1502 1501 1501 1502 1502 1500 1498 1497 1496 1495 1493 1490 1486 1482 1477 1475 1473 1471 1468 1463 1459 1456 1452 1448 1444 1440 1436 1432 1428 1423 1416 1412 1410 1406 1401 1396 1391 1387 1383 1379 1375 1370 1365 1362 1357 1353 1353 1354
1509 1507 1505 1504 1504 1507 1508 1507 1504 1505 1504 1503 1501 1500 1499 1497 1495 1493 1488 1484 1481 1478 1474 1472 1468 1465 1462 1459 1456 1453 1449 1445 1441 1439 1434 1431 1427 1421 1415 1411 1407 1405 1401 1397 1394 1391 1388 1384 1380 1377 1375 1374 1372 1371
1510 1509 1508 1508 1508 1509 1509 1509 1508 1507 1507 1505 1504 1503 1501 1499 1498 1495 1492 1489 1485 1479 1478 1475 1470 1468 1465 1463 1460 1457 1452 1451 1448 1444 1440 1436 1431 1426 1422 1419 1416 1411 1409 1407 1404 1401 1397 1395 1392 1390 1388 1387 1386 1384
1510 1509 1509 1509 1509 1509 1510 1511 1511 1509 1508 1506 1506 1505 1504 1503 1501 1499 1497 1493 1490 1487 1485 1482 1479 1473 1469 1466 1462 1459 1457 1454 1451 1448 1445 1440 1436 1432 1428 1424 1422 1418 1418 1413 1411 1409 1406 1404 1403 1400 1400 1399 1397 1395
1508 1508 1508 1507 1509 1508 1508 1510 1514 1517 1513 1511 1509 1508 1506 1506 1504 1503 1501 1498 1493 1489 1488 1484 1481 1479 1475 1470 1464 1460 1460 1458 1455 1451 1448 1445 1442 1438 1434 1430 1428 1425 1425 1423 1419 1417 1416 1415 1414 1413 1411 1409 1406 1405